Henderson, NV

8:51 AM PDT on April 23, 2017 (GMT -0700)
Henderson

Weather History for KHND - August, 2013

Change the Weather History Date:

Tuesday, August 27, 2013

  Actual Average (KLAS) Record (KLAS)
Temperature  
Mean Temperature 80 °F -  
Max Temperature 93 °F 99 °F 109 °F (2001)
Min Temperature 66 °F 72 °F 60 °F (1943)
Cooling Degree Days 14    
Growing Degree Days 30 (Base 50)    
Moisture  
Dew Point 61 °F    
Average Humidity 53    
Maximum Humidity 87    
Minimum Humidity 31    
Precipitation  
Precipitation 0.00 in - - ()
Sea Level Pressure  
Sea Level Pressure 29.91 in    
Wind  
Wind Speed 6 mph (North)    
Max Wind Speed 8 mph    
Max Gust Speed -    
Visibility 10 miles    
Events      
Averages and records for this station are not official NWS values.
T = Trace of Precipitation, MM = Missing Value Source: NWS Daily Summary

Daily Weather History Graph

Daily Weather History Graph

Search for Another Location

Airport or City:

Trip Planner

Search our weather history database for the weather conditions in past years. The results will help you decide how hot, cold, wet, or windy it might be!

Date:

Astronomy

Aug. 27, 2013 Rise Set
Actual Time 6:08 AM PDT 7:14 PM PDT
Civil Twilight 5:42 AM PDT 7:40 PM PDT
Nautical Twilight 5:10 AM PDT 8:12 PM PDT
Astronomical Twilight 4:38 AM PDT 8:44 PM PDT
Moon 11:25 PM PDT (8/27) 12:56 PM PDT (8/27)
Length of Visible Light 13h 58m
Length of Day
13h 05m
Waning Gibbous, 56% of the Moon is Illuminated
Aug 27
Waning Gibbous
Aug 28
Last Quarter
Sep 5
New
Sep 12
First Quarter
Sep 19
Full

Hourly Weather History & Observations

Time (PDT) Temp. Heat Index Dew Point Humidity Pressure Visibility Wind Dir Wind Speed Gust Speed Precip Events Conditions
12:56 AM 68.0 °F - 61.9 °F 81% 29.97 in 10.0 mi North - - N/A   Clear
1:56 AM 68.9 °F - 61.9 °F 78% 29.97 in 10.0 mi North - - N/A   Partly Cloudy
2:56 AM 68.0 °F - 63.9 °F 87% 29.96 in 10.0 mi North - - N/A   Scattered Clouds
3:56 AM 68.0 °F - 63.0 °F 84% 29.95 in 10.0 mi North - - N/A   Clear
4:56 AM 66.9 °F - 63.0 °F 87% 29.94 in 10.0 mi North - - N/A   Clear
5:56 AM 66.9 °F - 61.9 °F 84% 29.94 in 10.0 mi North - - N/A   Clear
6:56 AM 68.0 °F - 63.0 °F 84% 29.96 in 10.0 mi North - - N/A   Clear
7:56 AM 70.9 °F - 61.9 °F 73% 29.97 in 10.0 mi North - - N/A   Clear
8:56 AM 74.8 °F - 61.9 °F 64% 29.96 in 10.0 mi North - - N/A   Clear
9:56 AM 79.9 °F - 61.0 °F 52% 29.96 in 10.0 mi North - - N/A   Clear
10:56 AM 83.8 °F 84.3 °F 61.9 °F 47% 29.96 in 10.0 mi North - - N/A   Clear
11:56 AM 84.9 °F 85.0 °F 61.0 °F 44% 29.94 in 10.0 mi North - - N/A   Partly Cloudy
12:40 PM 87.8 °F 87.6 °F 60.8 °F 40% 29.98 in 10.0 mi North - - N/A   Scattered Clouds
12:43 PM 87.8 °F 87.6 °F 60.8 °F 40% 29.98 in 10.0 mi North - - N/A   Squalls
12:56 PM 88.0 °F 87.6 °F 59.9 °F 39% 29.92 in 10.0 mi North - - N/A   Partly Cloudy
1:56 PM 90.9 °F 90.0 °F 59.0 °F 34% 29.89 in 10.0 mi Variable 3.5 mph - N/A   Clear
2:56 PM 88.9 °F 88.0 °F 59.0 °F 36% 29.87 in 10.0 mi NW 8.1 mph - N/A   Clear
3:56 PM 92.8 °F 92.1 °F 59.0 °F 32% 29.83 in 10.0 mi NW 5.8 mph - N/A   Clear
4:56 PM 93.9 °F 93.2 °F 59.0 °F 31% 29.82 in 10.0 mi North 8.1 mph - N/A   Clear
5:56 PM 91.9 °F 91.2 °F 59.0 °F 33% 29.81 in 10.0 mi NNE 6.9 mph - N/A   Clear
6:56 PM 90.9 °F 89.7 °F 57.9 °F 33% 29.81 in 10.0 mi NNE 6.9 mph - N/A   Clear
7:56 PM 88.9 °F 88.0 °F 59.0 °F 36% 29.81 in 10.0 mi North 5.8 mph - N/A   Clear
8:56 PM 88.0 °F 87.6 °F 59.9 °F 39% 29.83 in 10.0 mi East 6.9 mph - N/A   Clear
9:56 PM 86.9 °F 86.5 °F 59.9 °F 40% 29.83 in 10.0 mi SE 4.6 mph - N/A   Clear
10:56 PM 82.9 °F 83.2 °F 59.9 °F 46% 29.84 in 10.0 mi North 5.8 mph - N/A   Clear
11:56 PM 81.9 °F 82.1 °F 59.0 °F 46% 29.84 in 10.0 mi NNW 3.5 mph - N/A   Clear